Wiscasset, ME

5:08 AM EDT on June 27, 2017 (GMT -0400)
Wiscasset

Weather History for KIWI - October, 2011

Change the Weather History Date:

Friday, October 21, 2011

  Actual Average Record
Temperature  
Mean Temperature 52 °F -  
Max Temperature 61 °F 53 °F 70 °F (2007)
Min Temperature 43 °F 33 °F 26 °F (2002)
Degree Days  
Heating Degree Days 13    
Growing Degree Days 2 (Base 50)    
Moisture  
Dew Point 43 °F    
Average Humidity 70    
Maximum Humidity 93    
Minimum Humidity 48    
Precipitation  
Precipitation 0.00 in - - ()
Sea Level Pressure  
Sea Level Pressure 29.79 in    
Wind  
Wind Speed 7 mph (SW)    
Max Wind Speed 14 mph    
Max Gust Speed 22 mph    
Visibility 10 miles    
Events      
Averages and records for this station are not official NWS values.
T = Trace of Precipitation, MM = Missing Value Source: NWS Daily Summary

Daily Weather History Graph

Daily Weather History Graph

Search for Another Location

Airport or City:

Trip Planner

Search our weather history database for the weather conditions in past years. The results will help you decide how hot, cold, wet, or windy it might be!

Date:

Astronomy

Oct. 21, 2011 Rise Set
Actual Time 7:00 AM EDT 5:45 PM EDT
Civil Twilight 6:31 AM EDT 6:15 PM EDT
Nautical Twilight 5:57 AM EDT 6:48 PM EDT
Astronomical Twilight 5:24 AM EDT 7:21 PM EDT
Moon 12:34 AM EDT (10/21) 2:39 PM EDT (10/21)
Length of Visible Light 11h 43m
Length of Day
10h 45m
Waning Crescent, 34% of the Moon is Illuminated
Oct 21
Waning Crescent
Oct 26
New
Nov 2
First Quarter
Nov 10
Full
Nov 18
Last Quarter

Hourly Weather History & Observations

Time (EDT) Temp. Dew Point Humidity Pressure Visibility Wind Dir Wind Speed Gust Speed Precip Events Conditions
12:53 AM 55.9 °F 48.0 °F 75% 29.65 in 10.0 mi SW 12.7 mph 21.9 mph N/A   Scattered Clouds
2:53 AM 54.0 °F 46.9 °F 77% 29.67 in 10.0 mi SW 6.9 mph - N/A   Clear
3:53 AM 54.0 °F 45.0 °F 72% 29.68 in 10.0 mi SW 10.4 mph 16.1 mph N/A   Scattered Clouds
4:53 AM 52.0 °F 44.1 °F 74% 29.70 in 10.0 mi WSW 4.6 mph - N/A   Clear
5:53 AM 50.0 °F 43.0 °F 77% 29.71 in 10.0 mi SW 3.5 mph - N/A   Clear
6:53 AM 48.9 °F 43.0 °F 80% 29.71 in 10.0 mi SSW 4.6 mph - N/A   Clear
7:53 AM 53.1 °F 44.1 °F 71% 29.73 in 10.0 mi SW 6.9 mph - N/A   Clear
8:53 AM 55.0 °F 43.0 °F 64% 29.75 in 10.0 mi SW 13.8 mph 20.7 mph N/A   Clear
9:53 AM 55.9 °F 42.1 °F 60% 29.75 in 10.0 mi SW 10.4 mph 20.7 mph N/A   Clear
10:53 AM 55.9 °F 42.1 °F 60% 29.76 in 10.0 mi WSW 8.1 mph 17.3 mph N/A   Partly Cloudy
11:53 AM 59.0 °F 41.0 °F 51% 29.76 in 10.0 mi SW 11.5 mph 19.6 mph N/A   Clear
12:53 PM 60.1 °F 41.0 °F 49% 29.76 in 10.0 mi West 8.1 mph - N/A   Mostly Cloudy
1:53 PM 59.0 °F 41.0 °F 51% 29.76 in 10.0 mi Variable 5.8 mph - N/A   Partly Cloudy
2:53 PM 61.0 °F 41.0 °F 48% 29.78 in 10.0 mi WSW 10.4 mph - N/A   Scattered Clouds
3:53 PM 61.0 °F 41.0 °F 48% 29.79 in 10.0 mi Variable 5.8 mph - N/A   Partly Cloudy
4:53 PM 59.0 °F 41.0 °F 51% 29.82 in 10.0 mi Variable 3.5 mph - N/A   Clear
5:53 PM 54.0 °F 43.0 °F 66% 29.85 in 10.0 mi Calm Calm - N/A   Mostly Cloudy
6:53 PM 48.9 °F 44.1 °F 83% 29.88 in 10.0 mi Calm Calm - N/A   Scattered Clouds
7:53 PM 46.0 °F 43.0 °F 89% 29.89 in 10.0 mi Calm Calm - N/A   Scattered Clouds
8:53 PM 44.1 °F 41.0 °F 89% 29.90 in 10.0 mi Calm Calm - N/A   Clear
9:53 PM 43.0 °F 39.9 °F 89% 29.92 in 10.0 mi Calm Calm - N/A   Partly Cloudy
10:53 PM 44.1 °F 42.1 °F 93% 29.92 in 10.0 mi Calm Calm - N/A   Overcast
11:53 PM 45.0 °F 42.1 °F 90% 29.92 in 10.0 mi Calm Calm - N/A   Overcast